Time,TemperatureF,DewpointF,PressureIn,WindDirection,WindDirectionDegrees,WindSpeedMPH,WindSpeedGustMPH,Humidity,HourlyPrecipIn,Conditions,Clouds,dailyrainin,SoftwareType,DateUTC
2013-07-20 00:04:00,61.4,46.9,29.73,SSE,160,0.0,3.0,59,0.00,,,0.00,WeatherTracker,2013-07-20 07:04:00,
2013-07-20 00:09:00,61.8,46.4,29.73,SSE,160,0.0,0.0,57,0.00,,,0.00,WeatherTracker,2013-07-20 07:09:00,
2013-07-20 00:14:00,61.9,47.9,29.73,SSE,160,0.0,2.0,60,0.00,,,0.00,WeatherTracker,2013-07-20 07:14:00,
2013-07-20 00:19:00,61.6,48.0,29.73,SSE,160,0.0,2.0,61,0.00,,,0.00,WeatherTracker,2013-07-20 07:19:00,
2013-07-20 00:24:00,60.8,47.3,29.73,SSE,160,0.0,0.0,61,0.00,,,0.00,WeatherTracker,2013-07-20 07:24:00,
2013-07-20 00:29:00,59.5,47.3,29.73,SSE,160,0.0,0.0,64,0.00,,,0.00,WeatherTracker,2013-07-20 07:29:00,
2013-07-20 00:34:00,57.1,47.0,29.73,SSE,160,4.0,0.0,69,0.00,,,0.00,WeatherTracker,2013-07-20 07:34:00,
2013-07-20 00:40:00,57.1,45.4,29.73,SSE,160,2.0,4.0,65,0.00,,,0.00,WeatherTracker,2013-07-20 07:40:00,
2013-07-20 00:45:00,58.3,45.8,29.73,SSE,160,0.0,4.0,63,0.00,,,0.00,WeatherTracker,2013-07-20 07:45:00,
2013-07-20 00:50:00,58.8,45.8,29.73,SSE,160,0.0,2.0,62,0.00,,,0.00,WeatherTracker,2013-07-20 07:50:00,
2013-07-20 00:55:00,59.0,44.2,29.73,SSE,160,0.0,0.0,58,0.00,,,0.00,WeatherTracker,2013-07-20 07:55:00,
2013-07-20 01:00:00,59.2,45.8,29.73,SSE,160,0.0,0.0,61,0.00,,,0.00,WeatherTracker,2013-07-20 08:00:00,
2013-07-20 01:05:00,59.0,46.4,29.74,North,352,4.0,5.0,63,0.00,,,0.00,WeatherTracker,2013-07-20 08:05:00,
2013-07-20 01:10:00,58.3,46.6,29.75,NNW,338,2.0,7.0,65,0.00,,,0.00,WeatherTracker,2013-07-20 08:10:00,
2013-07-20 01:15:00,58.1,46.0,29.75,NNW,329,0.0,7.0,64,0.00,,,0.00,WeatherTracker,2013-07-20 08:15:00,
2013-07-20 01:20:00,58.2,45.2,29.75,WSW,244,3.0,9.0,62,0.00,,,0.00,WeatherTracker,2013-07-20 08:20:00,
2013-07-20 01:25:00,61.0,43.7,29.75,WSW,237,3.0,9.0,53,0.00,,,0.00,WeatherTracker,2013-07-20 08:25:00,
2013-07-20 01:30:00,64.0,43.9,29.75,WSW,242,1.0,5.0,48,0.00,,,0.00,WeatherTracker,2013-07-20 08:30:00,
2013-07-20 01:35:00,65.7,43.8,29.75,WSW,244,0.0,5.0,45,0.00,,,0.00,WeatherTracker,2013-07-20 08:35:00,
2013-07-20 01:40:00,66.4,44.4,29.75,WSW,245,0.0,3.0,45,0.00,,,0.00,WeatherTracker,2013-07-20 08:40:00,
2013-07-20 01:45:00,66.0,44.6,29.75,WSW,245,0.0,3.0,46,0.00,,,0.00,WeatherTracker,2013-07-20 08:45:00,
2013-07-20 01:50:00,65.3,44.0,29.74,WSW,245,0.0,1.0,46,0.00,,,0.00,WeatherTracker,2013-07-20 08:50:00,
2013-07-20 01:55:00,64.2,45.2,29.75,WSW,245,0.0,0.0,50,0.00,,,0.00,WeatherTracker,2013-07-20 08:55:00,
2013-07-20 02:00:00,62.5,46.1,29.75,WSW,245,0.0,2.0,55,0.00,,,0.00,WeatherTracker,2013-07-20 09:00:00,
2013-07-20 02:05:00,59.7,45.3,29.75,South,184,3.0,5.0,59,0.00,,,0.00,WeatherTracker,2013-07-20 09:05:00,
2013-07-20 02:10:00,57.9,45.0,29.74,South,183,0.0,5.0,62,0.00,,,0.00,WeatherTracker,2013-07-20 09:10:00,
2013-07-20 02:15:00,57.4,45.3,29.75,SSE,156,4.0,5.0,64,0.00,,,0.00,WeatherTracker,2013-07-20 09:15:00,
2013-07-20 02:20:00,55.9,45.1,29.74,SSE,148,1.0,5.0,67,0.00,,,0.00,WeatherTracker,2013-07-20 09:20:00,
2013-07-20 02:25:00,55.5,44.3,29.74,SE,125,3.0,5.0,66,0.00,,,0.00,WeatherTracker,2013-07-20 09:25:00,
2013-07-20 02:31:00,55.3,44.5,29.74,SE,126,2.0,4.0,67,0.00,,,0.00,WeatherTracker,2013-07-20 09:31:00,
2013-07-20 02:36:00,55.4,44.2,29.74,SSE,153,0.0,5.0,66,0.00,,,0.00,WeatherTracker,2013-07-20 09:36:00,
2013-07-20 02:41:00,54.5,43.4,29.74,SSE,153,1.0,5.0,66,0.00,,,0.00,WeatherTracker,2013-07-20 09:41:00,
2013-07-20 02:46:00,54.5,43.8,29.74,SSE,153,0.0,2.0,67,0.00,,,0.00,WeatherTracker,2013-07-20 09:46:00,
2013-07-20 02:51:00,54.6,44.3,29.75,SSE,153,0.0,2.0,68,0.00,,,0.00,WeatherTracker,2013-07-20 09:51:00,
2013-07-20 02:56:00,54.7,44.0,29.74,SSE,153,0.0,1.0,67,0.00,,,0.00,WeatherTracker,2013-07-20 09:56:00,
2013-07-20 03:01:00,54.9,43.0,29.74,SSE,153,0.0,0.0,64,0.00,,,0.00,WeatherTracker,2013-07-20 10:01:00,
2013-07-20 03:06:00,55.6,43.2,29.74,SSE,153,0.0,0.0,63,0.00,,,0.00,WeatherTracker,2013-07-20 10:06:00,
2013-07-20 03:11:00,56.2,42.9,29.74,SSE,153,0.0,3.0,61,0.00,,,0.00,WeatherTracker,2013-07-20 10:11:00,
2013-07-20 03:16:00,56.5,43.6,29.74,SSE,153,0.0,3.0,62,0.00,,,0.00,WeatherTracker,2013-07-20 10:16:00,
2013-07-20 03:21:00,56.0,43.2,29.74,SSE,153,0.0,2.0,62,0.00,,,0.00,WeatherTracker,2013-07-20 10:21:00,
2013-07-20 03:26:00,55.7,43.3,29.74,SSE,153,0.0,0.0,63,0.00,,,0.00,WeatherTracker,2013-07-20 10:26:00,
2013-07-20 03:31:00,55.9,42.6,29.74,SSE,154,2.0,2.0,61,0.00,,,0.00,WeatherTracker,2013-07-20 10:31:00,
2013-07-20 03:36:00,56.0,43.2,29.73,SSE,154,2.0,3.0,62,0.00,,,0.00,WeatherTracker,2013-07-20 10:36:00,
2013-07-20 03:41:00,55.1,42.7,29.73,SSE,154,1.0,3.0,63,0.00,,,0.00,WeatherTracker,2013-07-20 10:41:00,
2013-07-20 03:46:00,54.4,43.7,29.73,SSE,154,0.0,3.0,67,0.00,,,0.00,WeatherTracker,2013-07-20 10:46:00,
2013-07-20 03:51:00,54.1,43.8,29.73,SSE,154,0.0,2.0,68,0.00,,,0.00,WeatherTracker,2013-07-20 10:51:00,
2013-07-20 03:56:00,53.9,44.3,29.73,SSE,155,1.0,0.0,70,0.00,,,0.00,WeatherTracker,2013-07-20 10:56:00,
2013-07-20 04:01:00,53.5,44.0,29.73,SSE,155,0.0,2.0,70,0.00,,,0.00,WeatherTracker,2013-07-20 11:01:00,
2013-07-20 04:06:00,53.1,43.9,29.73,SSE,155,0.0,2.0,71,0.00,,,0.00,WeatherTracker,2013-07-20 11:06:00,
2013-07-20 04:12:00,52.8,43.7,29.73,SSE,154,0.0,0.0,71,0.00,,,0.00,WeatherTracker,2013-07-20 11:12:00,
2013-07-20 04:17:00,52.6,43.8,29.73,SSE,154,0.0,0.0,72,0.00,,,0.00,WeatherTracker,2013-07-20 11:17:00,
2013-07-20 04:22:00,52.6,43.8,29.73,SSE,155,0.0,0.0,72,0.00,,,0.00,WeatherTracker,2013-07-20 11:22:00,
2013-07-20 04:27:00,52.8,42.1,29.73,SSE,154,0.0,0.0,67,0.00,,,0.00,WeatherTracker,2013-07-20 11:27:00,
2013-07-20 04:32:00,53.2,44.0,29.73,SSE,155,0.0,0.0,71,0.00,,,0.00,WeatherTracker,2013-07-20 11:32:00,
2013-07-20 04:37:00,53.1,43.9,29.73,SSE,154,0.0,0.0,71,0.00,,,0.00,WeatherTracker,2013-07-20 11:37:00,
2013-07-20 04:42:00,52.6,43.5,29.74,SSE,154,0.0,0.0,71,0.00,,,0.00,WeatherTracker,2013-07-20 11:42:00,
2013-07-20 04:47:00,51.8,42.7,29.73,SSE,155,0.0,0.0,71,0.00,,,0.00,WeatherTracker,2013-07-20 11:47:00,
2013-07-20 04:52:00,51.4,43.7,29.73,SSE,155,0.0,0.0,75,0.00,,,0.00,WeatherTracker,2013-07-20 11:52:00,
2013-07-20 04:57:00,51.2,43.9,29.74,SSE,155,0.0,0.0,76,0.00,,,0.00,WeatherTracker,2013-07-20 11:57:00,
2013-07-20 05:02:00,51.3,43.6,29.74,SSE,154,0.0,0.0,75,0.00,,,0.00,WeatherTracker,2013-07-20 12:02:00,
2013-07-20 05:07:00,51.5,43.1,29.74,SSE,155,0.0,0.0,73,0.00,,,0.00,WeatherTracker,2013-07-20 12:07:00,
2013-07-20 05:12:00,51.4,43.0,29.74,SSE,155,0.0,3.0,73,0.00,,,0.00,WeatherTracker,2013-07-20 12:12:00,
2013-07-20 05:17:00,50.4,42.4,29.74,SE,146,3.0,4.0,74,0.00,,,0.00,WeatherTracker,2013-07-20 12:17:00,
2013-07-20 05:22:00,49.3,41.7,29.73,SSE,147,2.0,4.0,75,0.00,,,0.00,WeatherTracker,2013-07-20 12:22:00,
2013-07-20 05:27:00,49.6,41.7,29.74,SSE,148,0.0,4.0,74,0.00,,,0.00,WeatherTracker,2013-07-20 12:27:00,
2013-07-20 05:32:00,50.2,42.2,29.73,SSE,148,0.0,4.0,74,0.00,,,0.00,WeatherTracker,2013-07-20 12:32:00,
2013-07-20 05:37:00,50.5,41.8,29.73,SSE,148,3.0,3.0,72,0.00,,,0.00,WeatherTracker,2013-07-20 12:37:00,
2013-07-20 05:42:00,49.6,40.9,29.74,SSE,150,2.0,4.0,72,0.00,,,0.00,WeatherTracker,2013-07-20 12:42:00,
2013-07-20 05:47:00,49.3,41.0,29.74,SSE,152,0.0,4.0,73,0.00,,,0.00,WeatherTracker,2013-07-20 12:47:00,
2013-07-20 05:52:00,49.7,41.0,29.74,SSE,152,2.0,4.0,72,0.00,,,0.00,WeatherTracker,2013-07-20 12:52:00,
2013-07-20 05:57:00,50.2,41.2,29.74,SSE,152,1.0,4.0,71,0.00,,,0.00,WeatherTracker,2013-07-20 12:57:00,
2013-07-20 06:03:00,50.4,41.0,29.75,SSE,152,0.0,3.0,70,0.00,,,0.00,WeatherTracker,2013-07-20 13:03:00,
2013-07-20 06:08:00,51.0,41.2,29.75,SSE,152,0.0,3.0,69,0.00,,,0.00,WeatherTracker,2013-07-20 13:08:00,
2013-07-20 06:13:00,51.2,41.0,29.75,SSE,152,0.0,2.0,68,0.00,,,0.00,WeatherTracker,2013-07-20 13:13:00,
2013-07-20 06:18:00,51.5,41.3,29.75,South,177,2.0,0.0,68,0.00,,,0.00,WeatherTracker,2013-07-20 13:18:00,
2013-07-20 06:23:00,50.8,41.0,29.75,WNW,291,3.0,4.0,69,0.00,,,0.00,WeatherTracker,2013-07-20 13:23:00,
2013-07-20 06:28:00,50.2,40.1,29.75,WNW,291,3.0,4.0,68,0.00,,,0.00,WeatherTracker,2013-07-20 13:28:00,
2013-07-20 06:33:00,51.5,40.5,29.75,WNW,291,1.0,4.0,66,0.00,,,0.00,WeatherTracker,2013-07-20 13:33:00,
2013-07-20 06:38:00,52.4,41.4,29.75,WNW,291,0.0,3.0,66,0.00,,,0.00,WeatherTracker,2013-07-20 13:38:00,
2013-07-20 06:43:00,52.9,41.9,29.74,WNW,291,0.0,3.0,66,0.00,,,0.00,WeatherTracker,2013-07-20 13:43:00,
2013-07-20 06:48:00,53.3,41.8,29.75,WNW,291,0.0,2.0,65,0.00,,,0.00,WeatherTracker,2013-07-20 13:48:00,
2013-07-20 06:53:00,53.8,43.1,29.75,WNW,291,0.0,0.0,67,0.00,,,0.00,WeatherTracker,2013-07-20 13:53:00,
2013-07-20 06:58:00,54.3,44.7,29.75,West,272,2.0,0.0,70,0.00,,,0.00,WeatherTracker,2013-07-20 13:58:00,
2013-07-20 07:03:00,54.6,46.1,29.76,SSE,154,2.0,3.0,73,0.00,,,0.00,WeatherTracker,2013-07-20 14:03:00,
2013-07-20 07:08:00,55.2,46.7,29.75,SSE,153,0.0,4.0,73,0.00,,,0.00,WeatherTracker,2013-07-20 14:08:00,
2013-07-20 07:13:00,55.8,46.2,29.75,SSE,153,2.0,4.0,70,0.00,,,0.00,WeatherTracker,2013-07-20 14:13:00,
2013-07-20 07:18:00,56.8,46.4,29.75,SSE,153,3.0,3.0,68,0.00,,,0.00,WeatherTracker,2013-07-20 14:18:00,
2013-07-20 07:23:00,58.0,46.7,29.75,SSE,154,2.0,3.0,66,0.00,,,0.00,WeatherTracker,2013-07-20 14:23:00,
2013-07-20 07:28:00,59.3,47.1,29.75,SSE,154,2.0,3.0,64,0.00,,,0.00,WeatherTracker,2013-07-20 14:28:00,
2013-07-20 07:33:00,60.7,47.6,29.75,SSE,152,2.0,4.0,62,0.00,,,0.00,WeatherTracker,2013-07-20 14:33:00,
2013-07-20 07:38:00,62.1,48.5,29.75,SSE,152,2.0,4.0,61,0.00,,,0.00,WeatherTracker,2013-07-20 14:38:00,
2013-07-20 07:43:00,63.1,48.5,29.75,SSE,152,0.0,3.0,59,0.00,,,0.00,WeatherTracker,2013-07-20 14:43:00,
2013-07-20 07:49:00,64.0,48.5,29.75,SSE,152,0.0,3.0,57,0.00,,,0.00,WeatherTracker,2013-07-20 14:49:00,
2013-07-20 07:54:00,64.8,48.7,29.75,SSE,152,0.0,1.0,56,0.00,,,0.00,WeatherTracker,2013-07-20 14:54:00,
2013-07-20 07:59:00,65.7,46.5,29.75,SSE,152,0.0,1.0,50,0.00,,,0.00,WeatherTracker,2013-07-20 14:59:00,
2013-07-20 08:04:00,67.2,49.0,29.75,SSE,152,0.0,0.0,52,0.00,,,0.00,WeatherTracker,2013-07-20 15:04:00,
2013-07-20 08:09:00,68.7,48.2,29.75,SSE,152,0.0,0.0,48,0.00,,,0.00,WeatherTracker,2013-07-20 15:09:00,
2013-07-20 08:14:00,70.2,49.0,29.75,SSE,152,0.0,0.0,47,0.00,,,0.00,WeatherTracker,2013-07-20 15:14:00,
2013-07-20 08:19:00,71.5,50.2,29.75,SSE,152,0.0,0.0,47,0.00,,,0.00,WeatherTracker,2013-07-20 15:19:00,
2013-07-20 08:24:00,72.4,48.6,29.75,SSE,152,1.0,1.0,43,0.00,,,0.00,WeatherTracker,2013-07-20 15:24:00,
2013-07-20 08:29:00,72.9,47.8,29.75,SSE,150,1.0,2.0,41,0.00,,,0.00,WeatherTracker,2013-07-20 15:29:00,
2013-07-20 08:34:00,72.7,45.6,29.75,East,98,3.0,3.0,38,0.00,,,0.00,WeatherTracker,2013-07-20 15:34:00,
2013-07-20 08:39:00,72.2,43.7,29.75,North,355,1.0,4.0,36,0.00,,,0.00,WeatherTracker,2013-07-20 15:39:00,
2013-07-20 08:44:00,72.2,45.2,29.75,North,356,1.0,4.0,38,0.00,,,0.00,WeatherTracker,2013-07-20 15:44:00,
2013-07-20 08:49:00,72.4,47.4,29.75,North,354,2.0,4.0,41,0.00,,,0.00,WeatherTracker,2013-07-20 15:49:00,
2013-07-20 08:54:00,72.6,47.5,29.75,NNW,345,3.0,4.0,41,0.00,,,0.00,WeatherTracker,2013-07-20 15:54:00,
2013-07-20 08:59:00,72.9,46.5,29.75,NNW,346,0.0,5.0,39,0.00,,,0.00,WeatherTracker,2013-07-20 15:59:00,
2013-07-20 09:04:00,73.2,48.7,29.74,North,10,1.0,5.0,42,0.00,,,0.00,WeatherTracker,2013-07-20 16:04:00,
2013-07-20 09:09:00,73.6,47.8,29.74,NNW,327,3.0,5.0,40,0.00,,,0.00,WeatherTracker,2013-07-20 16:09:00,
2013-07-20 09:14:00,73.7,48.5,29.75,NNW,330,1.0,5.0,41,0.00,,,0.00,WeatherTracker,2013-07-20 16:14:00,
2013-07-20 09:19:00,74.0,48.8,29.74,NNW,329,2.0,5.0,41,0.00,,,0.00,WeatherTracker,2013-07-20 16:19:00,
2013-07-20 09:24:00,74.4,49.1,29.74,NW,321,3.0,5.0,41,0.00,,,0.00,WeatherTracker,2013-07-20 16:24:00,
2013-07-20 09:30:00,74.9,50.2,29.73,NW,320,1.0,5.0,42,0.00,,,0.00,WeatherTracker,2013-07-20 16:30:00,
2013-07-20 09:35:00,75.6,48.9,29.73,WNW,288,2.0,5.0,39,0.00,,,0.00,WeatherTracker,2013-07-20 16:35:00,
2013-07-20 09:40:00,76.1,50.0,29.73,WNW,297,2.0,5.0,40,0.00,,,0.00,WeatherTracker,2013-07-20 16:40:00,
2013-07-20 09:45:00,76.9,49.3,29.73,WNW,298,0.0,4.0,38,0.00,,,0.00,WeatherTracker,2013-07-20 16:45:00,
2013-07-20 09:50:00,78.3,49.1,29.73,WNW,298,0.0,4.0,36,0.00,,,0.00,WeatherTracker,2013-07-20 16:50:00,
2013-07-20 09:55:00,79.8,49.7,29.73,WNW,298,0.0,3.0,35,0.00,,,0.00,WeatherTracker,2013-07-20 16:55:00,
2013-07-20 10:00:00,81.2,50.9,29.73,NW,305,0.0,3.0,35,0.00,,,0.00,WeatherTracker,2013-07-20 17:00:00,
2013-07-20 10:05:00,82.0,50.0,29.73,NW,305,0.0,3.0,33,0.00,,,0.00,WeatherTracker,2013-07-20 17:05:00,
2013-07-20 10:10:00,82.6,52.1,29.73,NW,305,0.0,3.0,35,0.00,,,0.00,WeatherTracker,2013-07-20 17:10:00,
2013-07-20 10:15:00,82.9,50.8,29.73,NW,305,0.0,1.0,33,0.00,,,0.00,WeatherTracker,2013-07-20 17:15:00,
2013-07-20 10:20:00,83.0,49.2,29.73,NW,305,0.0,1.0,31,0.00,,,0.00,WeatherTracker,2013-07-20 17:20:00,
2013-07-20 10:25:00,83.6,50.6,29.73,NW,305,0.0,1.0,32,0.00,,,0.00,WeatherTracker,2013-07-20 17:25:00,
2013-07-20 10:30:00,84.8,48.0,29.73,NW,305,0.0,1.0,28,0.00,,,0.00,WeatherTracker,2013-07-20 17:30:00,
2013-07-20 10:35:00,85.9,49.9,29.72,NW,305,0.0,1.0,29,0.00,,,0.00,WeatherTracker,2013-07-20 17:35:00,
2013-07-20 10:40:00,86.9,50.8,29.72,NW,305,0.0,1.0,29,0.00,,,0.00,WeatherTracker,2013-07-20 17:40:00,
2013-07-20 10:45:00,87.2,51.0,29.71,NW,305,0.0,1.0,29,0.00,,,0.00,WeatherTracker,2013-07-20 17:45:00,
2013-07-20 10:50:00,87.3,51.1,29.71,NW,305,1.0,1.0,29,0.00,,,0.00,WeatherTracker,2013-07-20 17:50:00,
2013-07-20 10:55:00,87.7,51.5,29.71,NNW,337,0.0,4.0,29,0.00,,,0.00,WeatherTracker,2013-07-20 17:55:00,
2013-07-20 11:00:00,88.8,50.5,29.71,NNW,346,1.0,4.0,27,0.00,,,0.00,WeatherTracker,2013-07-20 18:00:00,
2013-07-20 11:06:00,89.5,51.1,29.70,NNW,346,0.0,3.0,27,0.00,,,0.00,WeatherTracker,2013-07-20 18:06:00,
2013-07-20 11:11:00,90.0,49.4,29.70,NNW,345,0.0,4.0,25,0.00,,,0.00,WeatherTracker,2013-07-20 18:11:00,
2013-07-20 11:16:00,89.1,48.7,29.70,NNW,345,0.0,4.0,25,0.00,,,0.00,WeatherTracker,2013-07-20 18:16:00,
2013-07-20 11:21:00,89.3,52.8,29.70,ENE,57,0.0,4.0,29,0.00,,,0.00,WeatherTracker,2013-07-20 18:21:00,
2013-07-20 11:26:00,90.5,51.9,29.70,NE,50,0.0,3.0,27,0.00,,,0.00,WeatherTracker,2013-07-20 18:26:00,
2013-07-20 11:31:00,91.4,50.6,29.69,NNE,24,0.0,3.0,25,0.00,,,0.00,WeatherTracker,2013-07-20 18:31:00,
2013-07-20 11:36:00,92.0,51.1,29.69,NNE,17,0.0,3.0,25,0.00,,,0.00,WeatherTracker,2013-07-20 18:36:00,
2013-07-20 11:41:00,92.0,51.1,29.69,NNE,29,0.0,2.0,25,0.00,,,0.00,WeatherTracker,2013-07-20 18:41:00,
2013-07-20 11:46:00,92.5,52.6,29.69,NE,52,0.0,4.0,26,0.00,,,0.00,WeatherTracker,2013-07-20 18:46:00,
2013-07-20 11:51:00,93.2,52.1,29.68,NE,53,0.0,4.0,25,0.00,,,0.00,WeatherTracker,2013-07-20 18:51:00,
2013-07-20 11:56:00,93.0,49.7,29.68,ENE,66,0.0,3.0,23,0.00,,,0.00,WeatherTracker,2013-07-20 18:56:00,
2013-07-20 12:01:00,93.7,54.6,29.68,ENE,66,0.0,3.0,27,0.00,,,0.00,WeatherTracker,2013-07-20 19:01:00,
2013-07-20 12:06:00,94.8,51.2,29.68,ENE,61,0.0,3.0,23,0.00,,,0.00,WeatherTracker,2013-07-20 19:06:00,
2013-07-20 12:12:00,95.6,50.6,29.68,ENE,61,1.0,1.0,22,0.00,,,0.00,WeatherTracker,2013-07-20 19:12:00,
2013-07-20 12:17:00,95.7,49.5,29.68,NE,44,0.0,3.0,21,0.00,,,0.00,WeatherTracker,2013-07-20 19:17:00,
2013-07-20 12:22:00,95.6,49.4,29.67,NNE,25,2.0,3.0,21,0.00,,,0.00,WeatherTracker,2013-07-20 19:22:00,
2013-07-20 12:27:00,95.6,50.6,29.67,NNE,23,2.0,4.0,22,0.00,,,0.00,WeatherTracker,2013-07-20 19:27:00,
2013-07-20 12:32:00,95.8,50.8,29.67,NNE,27,0.0,4.0,22,0.00,,,0.00,WeatherTracker,2013-07-20 19:32:00,
2013-07-20 12:37:00,96.0,48.4,29.67,NNE,12,0.0,5.0,20,0.00,,,0.00,WeatherTracker,2013-07-20 19:37:00,
2013-07-20 12:42:00,95.9,48.3,29.66,NNW,337,3.0,5.0,20,0.00,,,0.00,WeatherTracker,2013-07-20 19:42:00,
2013-07-20 12:47:00,96.0,48.4,29.66,NNE,17,0.0,4.0,20,0.00,,,0.00,WeatherTracker,2013-07-20 19:47:00,
2013-07-20 12:52:00,96.5,50.1,29.66,NNW,337,0.0,5.0,21,0.00,,,0.00,WeatherTracker,2013-07-20 19:52:00,
2013-07-20 12:57:00,97.3,45.1,29.66,NE,48,0.0,5.0,17,0.00,,,0.00,WeatherTracker,2013-07-20 19:57:00,
2013-07-20 13:03:00,98.3,44.3,29.65,NNE,33,0.0,4.0,16,0.00,,,0.00,WeatherTracker,2013-07-20 20:03:00,
2013-07-20 13:08:00,98.9,46.4,29.65,ENE,61,1.0,4.0,17,0.00,,,0.00,WeatherTracker,2013-07-20 20:08:00,
2013-07-20 13:13:00,99.4,46.8,29.65,NNE,19,2.0,4.0,17,0.00,,,0.00,WeatherTracker,2013-07-20 20:13:00,
2013-07-20 13:18:00,99.3,43.4,29.65,NNE,16,0.0,4.0,15,0.00,,,0.00,WeatherTracker,2013-07-20 20:18:00,
2013-07-20 13:23:00,99.0,43.2,29.64,North,7,2.0,4.0,15,0.00,,,0.00,WeatherTracker,2013-07-20 20:23:00,
2013-07-20 13:28:00,99.1,46.6,29.64,NNE,32,0.0,5.0,17,0.00,,,0.00,WeatherTracker,2013-07-20 20:28:00,
2013-07-20 13:33:00,98.6,44.6,29.64,NNW,331,3.0,6.0,16,0.00,,,0.00,WeatherTracker,2013-07-20 20:33:00,
2013-07-20 13:39:00,98.2,45.9,29.64,NNE,31,4.0,7.0,17,0.00,,,0.00,WeatherTracker,2013-07-20 20:39:00,
2013-07-20 13:44:00,98.5,46.1,29.64,North,354,2.0,7.0,17,0.00,,,0.00,WeatherTracker,2013-07-20 20:44:00,
2013-07-20 13:49:00,98.9,44.8,29.63,NNW,347,1.0,6.0,16,0.00,,,0.00,WeatherTracker,2013-07-20 20:49:00,
2013-07-20 13:54:00,99.3,46.7,29.63,NNE,22,1.0,6.0,17,0.00,,,0.00,WeatherTracker,2013-07-20 20:54:00,
2013-07-20 13:59:00,100.0,48.8,29.63,NNW,345,3.0,6.0,18,0.00,,,0.00,WeatherTracker,2013-07-20 20:59:00,
2013-07-20 14:04:00,100.1,45.8,29.63,North,7,0.0,5.0,16,0.00,,,0.00,WeatherTracker,2013-07-20 21:04:00,
2013-07-20 14:09:00,100.4,44.3,29.62,NNE,24,0.0,6.0,15,0.00,,,0.00,WeatherTracker,2013-07-20 21:09:00,
2013-07-20 14:14:00,100.9,49.5,29.62,East,84,0.0,6.0,18,0.00,,,0.00,WeatherTracker,2013-07-20 21:14:00,
2013-07-20 14:19:00,102.0,47.3,29.62,NNE,23,1.0,4.0,16,0.00,,,0.00,WeatherTracker,2013-07-20 21:19:00,
2013-07-20 14:24:00,102.2,45.7,29.61,North,358,2.0,4.0,15,0.00,,,0.00,WeatherTracker,2013-07-20 21:24:00,
2013-07-20 14:29:00,102.0,47.3,29.61,North,2,2.0,4.0,16,0.00,,,0.00,WeatherTracker,2013-07-20 21:29:00,
2013-07-20 14:34:00,102.2,49.1,29.61,NNW,338,4.0,4.0,17,0.00,,,0.00,WeatherTracker,2013-07-20 21:34:00,
2013-07-20 14:39:00,101.2,44.9,29.61,NNW,344,5.0,6.0,15,0.00,,,0.00,WeatherTracker,2013-07-20 21:39:00,
2013-07-20 14:44:00,100.5,46.1,29.61,NNW,335,6.0,7.0,16,0.00,,,0.00,WeatherTracker,2013-07-20 21:44:00,
2013-07-20 14:49:00,100.2,45.9,29.61,North,356,5.0,9.0,16,0.00,,,0.00,WeatherTracker,2013-07-20 21:49:00,
2013-07-20 14:54:00,100.1,45.8,29.61,NNW,331,6.0,9.0,16,0.00,,,0.00,WeatherTracker,2013-07-20 21:54:00,
2013-07-20 15:00:00,100.0,47.3,29.61,NNE,17,3.0,10.0,17,0.00,,,0.00,WeatherTracker,2013-07-20 22:00:00,
2013-07-20 15:05:00,100.1,44.1,29.60,NNW,346,5.0,10.0,15,0.00,,,0.00,WeatherTracker,2013-07-20 22:05:00,
2013-07-20 15:10:00,100.1,44.1,29.60,NE,50,1.0,7.0,15,0.00,,,0.00,WeatherTracker,2013-07-20 22:10:00,
2013-07-20 15:15:00,100.9,48.0,29.60,NNW,337,10.0,10.0,17,0.00,,,0.00,WeatherTracker,2013-07-20 22:15:00,
2013-07-20 15:20:00,100.3,47.5,29.60,North,358,0.0,13.0,17,0.00,,,0.00,WeatherTracker,2013-07-20 22:20:00,
2013-07-20 15:25:00,100.3,49.1,29.59,NW,310,12.0,15.0,18,0.00,,,0.00,WeatherTracker,2013-07-20 22:25:00,
2013-07-20 15:30:00,100.1,50.4,29.59,West,277,12.0,17.0,19,0.00,,,0.00,WeatherTracker,2013-07-20 22:30:00,
2013-07-20 15:35:00,99.9,50.2,29.59,WNW,293,7.0,17.0,19,0.00,,,0.00,WeatherTracker,2013-07-20 22:35:00,
2013-07-20 15:40:00,99.0,46.5,29.59,WNW,285,7.0,16.0,17,0.00,,,0.00,WeatherTracker,2013-07-20 22:40:00,
2013-07-20 15:45:00,97.6,49.7,29.59,NW,316,6.0,15.0,20,0.00,,,0.00,WeatherTracker,2013-07-20 22:45:00,
2013-07-20 15:50:00,97.0,49.2,29.59,NW,314,9.0,15.0,20,0.00,,,0.00,WeatherTracker,2013-07-20 22:50:00,
2013-07-20 15:55:00,97.7,47.0,29.59,NW,308,5.0,14.0,18,0.00,,,0.00,WeatherTracker,2013-07-20 22:55:00,
2013-07-20 16:00:00,99.1,50.9,29.60,NW,316,1.0,14.0,20,0.00,,,0.00,WeatherTracker,2013-07-20 23:00:00,
2013-07-20 16:05:00,98.6,47.7,29.60,SSW,204,10.0,15.0,18,0.00,,,0.00,WeatherTracker,2013-07-20 23:05:00,
2013-07-20 16:10:00,97.1,49.3,29.60,SSE,160,18.0,21.0,20,0.00,,,0.00,WeatherTracker,2013-07-20 23:10:00,
2013-07-20 16:15:00,95.9,47.0,29.60,South,181,18.0,25.0,19,0.00,,,0.00,WeatherTracker,2013-07-20 23:15:00,
2013-07-20 16:21:00,92.9,48.4,29.60,South,173,14.0,25.0,22,0.00,,,0.00,WeatherTracker,2013-07-20 23:21:00,
2013-07-20 16:26:00,92.1,50.1,29.60,South,176,17.0,25.0,24,0.00,,,0.00,WeatherTracker,2013-07-20 23:26:00,
2013-07-20 16:31:00,92.9,49.6,29.61,South,173,20.0,27.0,23,0.00,,,0.00,WeatherTracker,2013-07-20 23:31:00,
2013-07-20 16:36:00,92.8,48.3,29.61,SSE,158,19.0,27.0,22,0.00,,,0.00,WeatherTracker,2013-07-20 23:36:00,
2013-07-20 16:41:00,92.2,50.2,29.61,SSE,157,10.0,27.0,24,0.00,,,0.00,WeatherTracker,2013-07-20 23:41:00,
2013-07-20 16:46:00,92.2,47.8,29.61,SE,136,16.0,23.0,22,0.00,,,0.00,WeatherTracker,2013-07-20 23:46:00,
2013-07-20 16:51:00,91.5,50.7,29.61,South,173,21.0,26.0,25,0.00,,,0.00,WeatherTracker,2013-07-20 23:51:00,
2013-07-20 16:56:00,92.0,48.8,29.61,SSE,167,21.0,26.0,23,0.00,,,0.00,WeatherTracker,2013-07-20 23:56:00,
2013-07-20 17:01:00,92.1,48.9,29.61,SE,141,9.0,26.0,23,0.00,,,0.00,WeatherTracker,2013-07-21 00:01:00,
2013-07-20 17:06:00,91.2,45.8,29.61,SSE,150,9.0,25.0,21,0.00,,,0.00,WeatherTracker,2013-07-21 00:06:00,
2013-07-20 17:11:00,90.1,49.5,29.60,South,180,7.0,25.0,25,0.00,,,0.00,WeatherTracker,2013-07-21 00:11:00,
2013-07-20 17:16:00,90.4,47.5,29.60,South,175,10.0,21.0,23,0.00,,,0.00,WeatherTracker,2013-07-21 00:16:00,
2013-07-20 17:21:00,91.7,49.7,29.60,SSE,167,10.0,16.0,24,0.00,,,0.00,WeatherTracker,2013-07-21 00:21:00,
2013-07-20 17:27:00,91.9,51.0,29.59,SSE,162,12.0,17.0,25,0.00,,,0.00,WeatherTracker,2013-07-21 00:27:00,
2013-07-20 17:32:00,92.3,49.1,29.59,South,171,15.0,20.0,23,0.00,,,0.00,WeatherTracker,2013-07-21 00:32:00,
2013-07-20 17:37:00,92.6,50.5,29.59,South,173,12.0,20.0,24,0.00,,,0.00,WeatherTracker,2013-07-21 00:37:00,
2013-07-20 17:42:00,92.7,50.6,29.59,SSE,160,12.0,20.0,24,0.00,,,0.00,WeatherTracker,2013-07-21 00:42:00,
2013-07-20 17:47:00,93.0,51.9,29.59,SSE,154,12.0,21.0,25,0.00,,,0.00,WeatherTracker,2013-07-21 00:47:00,
2013-07-20 17:52:00,92.0,50.0,29.59,South,173,8.0,21.0,24,0.00,,,0.00,WeatherTracker,2013-07-21 00:52:00,
2013-07-20 17:57:00,92.4,49.2,29.58,South,186,10.0,21.0,23,0.00,,,0.00,WeatherTracker,2013-07-21 00:57:00,
2013-07-20 18:02:00,92.0,48.8,29.58,SSE,154,12.0,16.0,23,0.00,,,0.00,WeatherTracker,2013-07-21 01:02:00,
2013-07-20 18:07:00,92.3,49.1,29.58,SSE,152,9.0,16.0,23,0.00,,,0.00,WeatherTracker,2013-07-21 01:07:00,
2013-07-20 18:12:00,92.6,51.6,29.58,ESE,123,3.0,13.0,25,0.00,,,0.00,WeatherTracker,2013-07-21 01:12:00,
2013-07-20 18:17:00,92.3,50.2,29.58,SE,127,2.0,11.0,24,0.00,,,0.00,WeatherTracker,2013-07-21 01:17:00,
2013-07-20 18:22:00,91.5,50.7,29.58,ESE,112,9.0,10.0,25,0.00,,,0.00,WeatherTracker,2013-07-21 01:22:00,
2013-07-20 18:27:00,90.7,52.1,29.58,SE,144,3.0,10.0,27,0.00,,,0.00,WeatherTracker,2013-07-21 01:27:00,
2013-07-20 18:32:00,90.6,53.0,29.58,ESE,108,2.0,10.0,28,0.00,,,0.00,WeatherTracker,2013-07-21 01:32:00,
2013-07-20 18:38:00,90.4,51.8,29.58,SSE,155,0.0,7.0,27,0.00,,,0.00,WeatherTracker,2013-07-21 01:38:00,
2013-07-20 18:43:00,90.3,48.6,29.58,SSE,167,2.0,7.0,24,0.00,,,0.00,WeatherTracker,2013-07-21 01:43:00,
2013-07-20 18:48:00,90.2,50.6,29.59,SE,138,4.0,8.0,26,0.00,,,0.00,WeatherTracker,2013-07-21 01:48:00,
2013-07-20 18:53:00,90.7,47.8,29.59,SE,140,10.0,16.0,23,0.00,,,0.00,WeatherTracker,2013-07-21 01:53:00,
2013-07-20 18:58:00,90.0,50.5,29.59,SE,129,3.0,16.0,26,0.00,,,0.00,WeatherTracker,2013-07-21 01:58:00,
2013-07-20 19:03:00,89.5,51.1,29.59,South,169,4.0,14.0,27,0.00,,,0.00,WeatherTracker,2013-07-21 02:03:00,
2013-07-20 19:08:00,88.7,51.4,29.59,South,187,5.0,10.0,28,0.00,,,0.00,WeatherTracker,2013-07-21 02:08:00,
2013-07-20 19:13:00,88.1,49.9,29.59,SE,131,2.0,10.0,27,0.00,,,0.00,WeatherTracker,2013-07-21 02:13:00,
2013-07-20 19:18:00,88.6,50.3,29.59,ESE,115,2.0,10.0,27,0.00,,,0.00,WeatherTracker,2013-07-21 02:18:00,
2013-07-20 19:23:00,88.9,53.4,29.59,East,99,0.0,9.0,30,0.00,,,0.00,WeatherTracker,2013-07-21 02:23:00,
2013-07-20 19:28:00,87.7,53.3,29.60,ESE,103,0.0,4.0,31,0.00,,,0.00,WeatherTracker,2013-07-21 02:28:00,
2013-07-20 19:33:00,87.1,51.9,29.60,ESE,103,0.0,4.0,30,0.00,,,0.00,WeatherTracker,2013-07-21 02:33:00,
2013-07-20 19:38:00,86.3,51.2,29.60,ESE,103,0.0,0.0,30,0.00,,,0.00,WeatherTracker,2013-07-21 02:38:00,
2013-07-20 19:43:00,85.2,52.0,29.60,ESE,103,0.0,2.0,32,0.00,,,0.00,WeatherTracker,2013-07-21 02:43:00,
2013-07-20 19:48:00,84.0,51.8,29.60,East,96,0.0,3.0,33,0.00,,,0.00,WeatherTracker,2013-07-21 02:48:00,
2013-07-20 19:53:00,82.6,52.1,29.60,NNE,18,0.0,3.0,35,0.00,,,0.00,WeatherTracker,2013-07-21 02:53:00,
2013-07-20 19:58:00,81.4,51.1,29.60,ESE,106,4.0,5.0,35,0.00,,,0.00,WeatherTracker,2013-07-21 02:58:00,
2013-07-20 20:04:00,81.1,51.6,29.60,WNW,285,3.0,6.0,36,0.00,,,0.00,WeatherTracker,2013-07-21 03:04:00,
2013-07-20 20:09:00,80.5,52.5,29.60,WNW,286,0.0,6.0,38,0.00,,,0.00,WeatherTracker,2013-07-21 03:09:00,
2013-07-20 20:14:00,79.7,52.5,29.60,WNW,286,0.0,6.0,39,0.00,,,0.00,WeatherTracker,2013-07-21 03:14:00,
2013-07-20 20:19:00,79.2,52.1,29.60,WNW,286,0.0,2.0,39,0.00,,,0.00,WeatherTracker,2013-07-21 03:19:00,
2013-07-20 20:24:00,78.7,47.9,29.61,WNW,286,0.0,1.0,34,0.00,,,0.00,WeatherTracker,2013-07-21 03:24:00,
2013-07-20 20:29:00,79.1,48.3,29.61,WNW,286,0.0,0.0,34,0.00,,,0.00,WeatherTracker,2013-07-21 03:29:00,
2013-07-20 20:34:00,79.3,48.5,29.60,WNW,286,0.0,0.0,34,0.00,,,0.00,WeatherTracker,2013-07-21 03:34:00,
2013-07-20 20:39:00,79.1,51.3,29.61,WNW,286,0.0,3.0,38,0.00,,,0.00,WeatherTracker,2013-07-21 03:39:00,
2013-07-20 20:44:00,77.4,50.5,29.61,WNW,285,0.0,3.0,39,0.00,,,0.00,WeatherTracker,2013-07-21 03:44:00,
2013-07-20 20:50:00,75.9,50.5,29.61,WNW,286,0.0,2.0,41,0.00,,,0.00,WeatherTracker,2013-07-21 03:50:00,
2013-07-20 20:55:00,75.3,51.2,29.61,WNW,285,0.0,2.0,43,0.00,,,0.00,WeatherTracker,2013-07-21 03:55:00,
2013-07-20 21:00:00,73.8,52.3,29.61,SSE,150,2.0,4.0,47,0.00,,,0.00,WeatherTracker,2013-07-21 04:00:00,
2013-07-20 21:01:00,73.3,50.7,29.61,SSE,152,4.0,4.0,45,0.00,,,0.00,WeatherTracker,2013-07-21 04:01:00,
2013-07-20 21:06:00,69.6,51.2,29.61,SSE,155,4.0,4.0,52,0.00,,,0.00,WeatherTracker,2013-07-21 04:06:00,
2013-07-20 21:12:00,68.1,51.3,29.61,SSE,156,0.0,5.0,55,0.00,,,0.00,WeatherTracker,2013-07-21 04:12:00,
2013-07-20 21:17:00,68.5,49.1,29.61,SSE,156,0.0,5.0,50,0.00,,,0.00,WeatherTracker,2013-07-21 04:17:00,
2013-07-20 21:22:00,69.7,51.3,29.61,SSE,154,3.0,3.0,52,0.00,,,0.00,WeatherTracker,2013-07-21 04:22:00,
2013-07-20 21:27:00,69.6,50.7,29.62,SE,141,4.0,4.0,51,0.00,,,0.00,WeatherTracker,2013-07-21 04:27:00,
2013-07-20 21:32:00,68.3,51.0,29.62,ESE,115,5.0,5.0,54,0.00,,,0.00,WeatherTracker,2013-07-21 04:32:00,
2013-07-20 21:37:00,66.7,50.5,29.62,East,100,2.0,6.0,56,0.00,,,0.00,WeatherTracker,2013-07-21 04:37:00,
2013-07-20 21:42:00,66.7,50.0,29.62,ESE,106,0.0,6.0,55,0.00,,,0.00,WeatherTracker,2013-07-21 04:42:00,
2013-07-20 21:47:00,66.9,50.2,29.63,ESE,106,0.0,6.0,55,0.00,,,0.00,WeatherTracker,2013-07-21 04:47:00,
2013-07-20 21:52:00,67.3,49.6,29.63,ESE,108,2.0,4.0,53,0.00,,,0.00,WeatherTracker,2013-07-21 04:52:00,
2013-07-20 21:57:00,67.9,50.1,29.63,ESE,110,1.0,4.0,53,0.00,,,0.00,WeatherTracker,2013-07-21 04:57:00,
2013-07-20 22:02:00,67.8,50.0,29.63,ESE,122,2.0,4.0,53,0.00,,,0.00,WeatherTracker,2013-07-21 05:02:00,
2013-07-20 22:07:00,67.9,50.1,29.64,ESE,121,0.0,5.0,53,0.00,,,0.00,WeatherTracker,2013-07-21 05:07:00,
2013-07-20 22:12:00,67.4,50.7,29.64,ESE,121,0.0,5.0,55,0.00,,,0.00,WeatherTracker,2013-07-21 05:12:00,
2013-07-20 22:17:00,66.7,50.0,29.64,ESE,121,0.0,3.0,55,0.00,,,0.00,WeatherTracker,2013-07-21 05:17:00,
2013-07-20 22:22:00,65.4,49.8,29.65,NW,316,3.0,7.0,57,0.00,,,0.00,WeatherTracker,2013-07-21 05:22:00,
2013-07-20 22:27:00,64.7,50.0,29.65,West,278,2.0,7.0,59,0.00,,,0.00,WeatherTracker,2013-07-21 05:27:00,
2013-07-20 22:32:00,64.9,50.2,29.65,West,277,3.0,6.0,59,0.00,,,0.00,WeatherTracker,2013-07-21 05:32:00,
2013-07-20 22:37:00,66.2,50.5,29.65,West,276,0.0,5.0,57,0.00,,,0.00,WeatherTracker,2013-07-21 05:37:00,
2013-07-20 22:42:00,66.8,49.6,29.65,West,276,0.0,4.0,54,0.00,,,0.00,WeatherTracker,2013-07-21 05:42:00,
2013-07-20 22:47:00,67.7,49.9,29.65,West,276,0.0,4.0,53,0.00,,,0.00,WeatherTracker,2013-07-21 05:47:00,
2013-07-20 22:52:00,68.0,50.2,29.64,West,276,0.0,0.0,53,0.00,,,0.00,WeatherTracker,2013-07-21 05:52:00,
2013-07-20 22:58:00,67.9,49.6,29.64,West,276,0.0,0.0,52,0.00,,,0.00,WeatherTracker,2013-07-21 05:58:00,
2013-07-20 23:03:00,67.9,50.6,29.65,West,276,0.0,0.0,54,0.00,,,0.00,WeatherTracker,2013-07-21 06:03:00,
2013-07-20 23:08:00,67.3,50.6,29.65,West,276,0.0,3.0,55,0.00,,,0.00,WeatherTracker,2013-07-21 06:08:00,
2013-07-20 23:13:00,66.9,50.7,29.65,West,276,0.0,3.0,56,0.00,,,0.00,WeatherTracker,2013-07-21 06:13:00,
2013-07-20 23:18:00,65.8,50.6,29.65,WSW,254,2.0,2.0,58,0.00,,,0.00,WeatherTracker,2013-07-21 06:18:00,
2013-07-20 23:23:00,63.1,50.3,29.65,WSW,254,2.0,4.0,63,0.00,,,0.00,WeatherTracker,2013-07-21 06:23:00,
2013-07-20 23:28:00,63.0,50.2,29.65,WSW,249,2.0,4.0,63,0.00,,,0.00,WeatherTracker,2013-07-21 06:28:00,
2013-07-20 23:33:00,63.2,50.0,29.65,SW,227,3.0,4.0,62,0.00,,,0.00,WeatherTracker,2013-07-21 06:33:00,
2013-07-20 23:38:00,62.7,49.9,29.65,SE,142,1.0,4.0,63,0.00,,,0.00,WeatherTracker,2013-07-21 06:38:00,
2013-07-20 23:43:00,62.0,49.7,29.65,SE,134,2.0,4.0,64,0.00,,,0.00,WeatherTracker,2013-07-21 06:43:00,
2013-07-20 23:48:00,61.9,49.6,29.65,SE,127,3.0,5.0,64,0.00,,,0.00,WeatherTracker,2013-07-21 06:48:00,
2013-07-20 23:53:00,62.7,49.5,29.64,ESE,122,5.0,5.0,62,0.00,,,0.00,WeatherTracker,2013-07-21 06:53:00,
2013-07-20 23:58:00,63.1,49.4,29.64,ESE,111,3.0,6.0,61,0.00,,,0.00,WeatherTracker,2013-07-21 06:58:00,